Theta_e
331 332 333 334 334 335 336 337 339 341 342 343 344 345 347 348 349 348 350 351 350 349 349 348 346 345 345 345 346 347 349 350 352 351 351 351 352 351 352 354 354 353 353 353 352 355 353 352 352 352 352 350 349 348 348 348 349 350 350 355 350 349 349 351 349 347 345 346 343 341 346 348 351 353 350 350 351 353 354 355 356 356 356 355 357
332 331 332 333 333 334 335 336 339 338 339 341 342 344 346 347 347 348 350 350 350 349 350 349 347 347 345 345 346 346 349 350 349 350 350 351 352 351 353 353 353 353 354 353 353 354 352 351 351 351 351 350 349 351 349 352 352 350 349 350 352 351 348 349 348 346 342 338 338 338 343 341 349 353 351 350 350 352 353 353 354 354 354 355 356
330 331 332 332 332 333 333 335 337 338 339 340 342 344 345 345 347 348 349 349 350 350 349 349 347 348 347 346 347 347 350 353 351 352 353 351 352 352 353 353 353 352 354 353 353 354 354 352 351 352 351 352 351 350 352 351 351 349 351 349 349 345 352 350 348 346 342 339 340 338 334 332 344 342 345 348 350 350 351 351 352 352 354 355 357
329 330 331 332 332 332 333 334 336 337 338 339 341 342 344 345 346 347 348 349 349 350 352 350 348 348 348 347 348 349 349 354 353 354 353 353 352 352 353 353 352 352 353 353 354 355 354 353 352 352 351 353 352 350 350 350 352 350 351 353 348 345 340 341 348 345 343 343 337 333 331 330 330 336 336 341 342 347 349 349 351 351 353 354 356
330 331 332 332 331 331 332 334 336 336 337 338 340 342 343 344 345 346 347 349 349 351 351 349 349 345 346 346 350 350 351 350 349 349 352 353 353 352 352 353 352 352 354 354 355 355 355 354 353 353 352 352 353 350 350 350 352 353 353 354 349 345 339 338 345 344 343 347 341 334 332 332 331 334 333 340 342 344 345 347 350 351 351 353 354
332 331 332 333 332 332 333 334 334 335 336 338 340 342 343 343 345 346 347 348 349 350 350 348 347 343 341 342 342 343 343 345 345 346 348 350 352 354 354 354 353 353 354 354 355 356 355 355 355 354 353 353 353 351 350 351 352 354 354 354 352 344 343 338 339 352 345 348 344 343 342 340 337 337 333 336 340 347 346 347 347 350 352 353 355
334 334 334 334 333 332 332 333 334 335 336 338 339 341 342 343 344 345 345 346 348 349 349 349 345 343 342 342 343 343 342 344 348 349 350 352 355 354 355 355 354 353 355 356 355 357 357 356 356 356 355 354 356 354 353 352 352 354 355 352 352 351 341 341 338 341 346 346 349 345 348 349 342 342 336 334 335 341 342 342 344 346 349 351 352
333 334 334 335 335 333 332 334 335 336 337 338 338 340 341 342 343 344 345 347 347 348 348 349 345 343 341 342 344 343 343 344 346 348 351 354 354 354 355 356 356 356 356 357 356 356 358 356 356 357 357 355 356 356 355 355 354 355 358 354 351 353 343 343 339 339 345 340 354 346 354 348 345 342 340 339 334 334 338 340 342 343 343 347 350
334 334 334 335 335 335 334 334 336 337 337 338 338 339 340 342 343 344 343 346 346 348 348 348 348 344 342 341 342 345 344 345 348 350 351 355 353 355 355 356 357 357 358 358 358 358 359 358 356 357 357 357 360 358 357 356 356 355 357 352 351 351 346 343 342 341 338 341 343 343 346 345 343 346 345 344 344 336 336 335 340 344 342 341 342
334 335 335 336 337 337 336 335 336 337 338 340 339 339 339 340 342 342 342 344 346 346 348 347 347 347 343 340 341 342 345 345 346 346 348 352 352 353 355 356 357 357 358 359 358 359 360 360 357 356 358 359 361 360 358 357 357 356 356 354 352 351 346 347 342 342 340 341 344 345 345 344 344 344 342 342 340 339 337 338 339 339 338 343 342
333 334 335 336 338 338 337 335 335 337 338 339 339 339 339 339 341 341 342 343 346 346 347 346 347 346 343 342 341 341 342 342 342 344 347 350 350 352 354 355 357 357 359 359 359 359 360 361 359 358 359 361 363 362 359 358 358 357 356 353 351 349 347 345 348 346 343 344 343 345 345 345 344 341 342 342 340 339 340 339 339 342 339 338 345
332 333 333 335 336 337 337 335 335 335 337 337 338 338 339 339 340 340 341 342 344 346 346 346 346 346 345 343 341 341 342 341 342 342 345 348 349 350 353 355 355 357 358 358 358 359 360 360 362 360 360 361 361 363 362 360 360 358 356 354 351 348 351 349 350 346 343 345 344 344 344 344 344 345 344 344 346 343 341 340 339 341 342 339 340
332 332 332 333 334 335 335 335 335 334 335 336 337 338 339 339 339 339 339 342 343 345 345 346 346 345 345 343 342 342 342 341 341 342 345 347 349 349 350 352 354 354 355 356 357 358 359 359 359 359 360 361 362 362 362 361 361 359 357 355 353 350 351 349 348 346 345 345 345 344 344 346 346 346 347 347 345 343 343 341 340 338 340 339 343
332 332 332 332 333 335 336 335 335 334 335 335 336 338 339 339 339 339 339 341 343 344 345 345 345 346 346 344 343 343 341 341 341 341 343 347 349 349 350 351 352 353 354 355 357 358 359 360 361 360 360 361 362 362 362 361 360 359 358 356 354 354 352 349 349 347 347 347 347 347 346 347 348 349 349 346 345 344 342 339 340 340 338 339 341
333 332 332 333 333 334 335 335 335 335 334 335 335 337 338 339 339 339 339 340 342 343 344 344 345 345 345 345 344 343 342 342 341 342 342 345 348 349 350 351 353 354 354 356 358 358 359 360 360 360 359 359 361 361 361 361 361 360 360 358 357 355 353 352 350 348 346 346 344 346 346 347 347 349 347 347 347 347 345 342 340 336 336 332 335
333 333 333 333 334 334 335 335 335 335 335 335 335 336 338 339 339 339 339 340 341 344 344 344 345 345 345 344 344 344 345 343 342 344 342 344 346 349 349 350 352 354 355 356 356 358 358 359 360 360 360 359 359 360 360 360 360 359 359 359 357 357 354 353 353 350 349 348 345 346 349 347 349 349 349 350 348 348 346 343 345 342 338 335 333
333 333 333 334 334 334 334 335 335 336 335 334 335 336 338 339 339 339 340 340 341 343 343 344 344 344 344 344 344 344 344 342 341 341 340 342 345 347 348 349 351 353 354 356 355 357 358 359 359 359 359 359 358 359 359 359 359 359 358 358 357 358 357 355 353 353 353 350 349 349 350 352 352 353 353 355 352 347 345 345 345 344 341 336 332
335 335 335 335 335 335 334 335 336 336 336 335 335 336 338 339 340 339 340 339 340 342 343 344 344 344 344 344 344 344 344 343 343 341 340 341 342 344 346 348 349 352 353 354 355 356 357 361 359 359 359 359 358 358 358 358 359 358 359 359 358 358 358 357 356 354 354 353 355 354 352 353 354 354 354 355 353 348 346 347 344 343 342 340 338
335 335 335 335 335 335 335 335 336 336 338 336 336 336 337 339 340 340 340 340 341 342 344 345 345 344 344 344 344 344 344 344 344 344 341 339 340 342 343 346 348 351 354 354 355 355 357 359 359 358 359 359 358 357 358 357 358 358 357 357 358 358 357 357 357 356 355 354 354 354 353 354 354 354 355 355 355 351 349 346 346 344 343 347 340
334 335 335 335 337 336 335 335 335 336 337 337 336 336 336 338 340 340 341 341 342 342 344 344 344 345 344 345 345 345 345 344 345 344 340 339 340 341 343 344 347 351 352 353 354 355 356 357 358 358 358 358 358 357 356 357 357 357 357 357 357 357 356 356 356 357 356 357 355 354 354 355 354 354 355 354 355 353 350 348 348 348 345 343 343
333 336 336 336 336 336 336 337 336 337 338 338 336 335 336 338 339 340 340 340 341 342 343 344 345 345 345 344 344 344 343 344 344 344 342 340 340 342 342 345 348 349 352 352 353 355 356 357 358 358 358 358 358 358 357 357 356 356 356 357 357 356 356 356 357 356 357 357 357 355 355 355 356 356 355 354 354 354 352 350 349 348 346 345 346
326 333 337 337 337 337 337 337 337 336 336 337 336 336 336 337 338 340 340 340 340 342 343 344 345 345 345 345 345 344 344 344 343 344 344 341 340 340 342 346 347 348 351 352 353 354 355 356 357 358 359 358 358 359 357 357 356 355 354 355 356 356 356 355 356 356 356 357 357 356 355 355 356 356 355 354 355 354 353 352 352 349 349 348 347
323 327 334 337 337 338 337 337 336 336 336 337 337 336 335 336 338 339 340 340 341 342 344 345 345 345 345 345 345 345 344 343 342 343 343 343 341 340 341 343 346 348 352 352 352 353 354 355 356 357 358 358 358 358 358 357 357 356 355 354 356 356 356 355 354 355 355 356 356 356 355 356 356 356 356 356 355 355 355 353 353 352 352 352 350
321 323 327 333 336 342 337 336 337 336 336 337 337 337 336 336 338 339 340 341 341 342 343 345 345 345 345 345 345 346 345 343 342 342 342 343 343 342 342 341 343 347 350 352 353 353 354 354 354 356 357 357 357 357 357 357 357 357 356 355 356 356 356 356 356 356 356 356 355 355 355 356 356 356 356 357 356 355 355 355 354 353 353 354 353
319 320 322 326 328 331 334 338 338 337 337 337 337 337 336 336 338 338 340 341 342 343 343 344 345 345 345 345 345 345 345 344 343 343 343 343 344 344 343 341 341 343 348 351 353 354 353 353 353 354 355 356 357 357 357 357 357 357 357 356 356 356 356 356 356 357 358 357 356 356 356 356 356 355 355 354 355 356 355 354 355 355 354 354 354
318 318 320 321 323 326 329 332 336 337 338 338 339 338 337 337 338 339 340 341 342 343 344 344 345 345 345 345 345 345 345 345 344 344 344 343 344 344 345 345 342 341 343 347 351 352 352 352 353 353 354 355 357 357 357 357 357 357 357 357 357 356 356 356 356 355 356 357 357 357 357 357 356 356 356 356 356 356 355 355 355 355 355 355 355
317 318 318 320 321 323 325 328 331 335 338 338 338 338 338 338 338 339 340 342 343 343 344 344 345 345 345 345 345 345 346 346 346 345 345 345 344 344 344 345 346 343 341 342 346 349 352 352 352 353 353 354 355 356 357 357 357 357 357 357 356 356 356 356 357 356 356 356 356 356 357 357 357 357 357 357 357 356 356 356 357 357 356 355 354
316 317 317 317 319 321 323 325 327 329 334 337 340 339 339 339 338 339 340 341 342 343 343 344 345 345 345 346 346 346 346 347 347 347 346 345 345 344 344 345 347 346 344 342 342 344 348 351 352 352 353 354 354 355 356 356 357 357 357 356 356 356 356 356 357 357 357 356 356 356 356 356 357 358 358 359 358 358 358 357 357 357 356 355 355
314 315 316 316 317 319 321 323 325 327 328 330 335 338 341 342 341 341 340 341 343 343 343 343 344 345 346 347 347 348 348 348 348 348 347 346 346 345 345 345 345 346 347 346 345 343 343 346 349 351 351 352 352 353 354 355 356 357 357 356 356 356 356 356 356 356 357 358 357 357 356 356 358 360 358 358 358 358 358 357 358 358 357 356 356
313 314 315 316 317 318 320 322 323 325 326 328 329 332 336 341 341 341 342 342 343 342 343 343 343 344 346 347 348 349 348 348 348 348 348 347 347 346 345 344 344 345 346 348 348 347 345 344 344 347 349 350 351 352 350 342 344 355 357 356 357 357 357 357 356 356 356 357 357 358 358 361 355 355 354 350 345 348 353 358 359 359 358 357 356
313 313 314 315 317 318 319 320 322 324 326 327 327 329 332 337 340 343 343 344 343 343 343 343 343 345 346 347 348 348 349 348 348 348 348 348 348 347 346 346 345 344 344 347 348 347 346 346 344 344 346 348 349 350 340 334 335 339 353 356 356 356 357 357 356 356 355 355 356 357 358 361 363 357 355 347 343 340 341 342 345 353 359 358 356
313 314 315 314 315 317 318 319 321 323 325 326 327 328 330 331 335 339 345 346 344 344 343 343 344 345 346 347 347 348 348 348 349 348 349 349 348 348 347 346 345 344 344 345 345 346 347 347 346 346 345 346 348 343 333 332 333 333 339 356 356 356 356 356 356 356 356 356 356 356 356 357 359 361 361 360 352 345 339 339 338 339 343 349 351
314 316 316 314 315 316 318 319 321 323 324 325 327 327 328 331 334 338 344 348 346 345 345 345 345 346 346 347 348 348 348 348 349 349 349 349 349 348 347 346 345 346 345 344 344 344 345 347 347 346 345 346 347 338 331 330 330 331 331 344 356 356 355 355 356 356 356 357 357 357 356 357 356 361 362 361 362 360 346 337 337 339 340 339 336
314 314 315 316 316 317 319 320 322 323 325 326 328 327 329 332 335 339 341 345 348 347 347 346 347 347 347 348 348 348 348 349 349 349 349 349 348 348 347 347 347 347 346 344 344 344 344 345 346 347 347 347 347 338 329 327 327 327 329 335 354 355 355 355 356 356 356 357 357 356 356 356 357 358 361 361 361 361 360 357 352 350 350 351 343
313 314 315 316 316 317 318 320 321 323 324 325 325 327 329 330 334 336 338 341 347 349 348 348 348 348 349 349 349 349 348 349 350 350 350 349 349 348 348 348 348 347 346 345 344 344 344 345 345 346 346 346 347 334 326 324 324 324 326 330 351 354 355 355 356 356 356 357 357 357 357 356 357 357 358 359 359 359 359 358 357 355 354 355 355
313 315 316 316 317 317 318 320 323 322 323 324 325 327 327 329 333 335 337 340 343 347 350 351 350 350 350 350 350 350 350 350 350 350 350 349 349 349 348 349 349 348 348 347 347 346 345 344 345 345 345 345 347 330 325 323 322 322 324 339 348 352 353 354 355 355 356 357 358 358 357 357 356 356 353 342 350 358 358 357 356 356 356 356 356
316 316 317 319 319 318 319 322 321 321 323 323 325 327 327 329 332 333 335 337 338 339 342 346 352 353 353 353 352 352 351 351 352 351 350 350 350 350 350 351 349 349 348 347 347 346 347 346 345 345 345 345 346 335 323 321 320 320 324 342 347 350 352 353 353 355 356 357 357 357 357 357 357 356 347 333 333 349 356 355 354 354 354 354 354
316 317 318 319 320 319 321 322 320 320 321 323 325 327 327 328 330 331 332 333 333 334 337 340 342 346 352 357 355 354 353 353 353 352 352 352 352 352 351 352 350 349 348 348 348 348 348 348 346 346 345 345 345 338 321 318 318 319 329 343 346 347 349 351 352 354 355 356 357 359 360 357 356 356 338 330 329 342 354 355 354 352 352 351 353
316 316 316 318 320 320 321 321 320 318 319 321 324 326 326 327 329 329 329 329 330 332 334 335 339 344 347 350 356 357 355 354 354 354 354 353 353 353 353 354 352 351 350 351 351 349 349 349 348 347 348 346 347 340 322 318 317 316 327 345 347 347 348 349 350 352 354 355 355 358 359 355 355 349 333 329 327 338 353 354 354 352 351 351 352
316 317 317 320 322 319 317 318 318 318 321 321 323 324 325 325 327 328 328 327 328 330 332 335 338 343 347 350 353 355 358 357 356 356 356 355 356 355 355 354 353 353 352 352 351 351 349 349 350 349 349 348 347 348 341 318 316 314 319 344 348 347 347 348 349 350 351 352 354 355 352 336 332 332 329 325 323 325 349 354 354 352 351 350 355
316 316 320 318 319 318 317 318 318 319 320 321 323 322 323 323 325 325 324 326 328 330 332 335 338 341 345 349 352 354 354 357 359 358 357 357 357 356 356 355 354 354 353 352 352 351 351 350 350 350 350 350 349 349 346 320 315 314 315 327 347 347 348 348 349 349 351 351 352 353 354 340 326 325 324 322 319 318 330 353 354 353 353 352 351
318 319 318 318 318 317 317 319 320 319 320 320 322 321 322 322 323 322 323 326 328 329 331 333 335 338 342 346 351 355 357 357 358 359 358 358 358 358 357 356 355 355 353 352 352 352 351 351 351 351 351 351 351 342 351 326 316 313 313 317 342 348 348 349 348 349 350 350 351 352 352 342 327 323 322 320 316 317 319 346 352 333 332 331 348
314 315 317 317 318 316 315 317 320 320 318 319 321 321 320 321 321 321 323 326 327 329 330 330 331 334 337 340 342 345 351 357 359 360 359 358 359 358 358 357 356 355 354 353 352 352 351 351 351 352 352 352 352 351 332 342 318 313 312 313 322 337 332 349 349 348 349 349 351 352 353 340 325 320 318 317 317 316 319 333 326 324 325 327 339
314 316 316 318 318 318 316 317 319 319 319 319 320 319 320 320 320 322 323 325 326 327 327 328 329 331 333 335 338 341 345 350 355 359 359 358 358 358 358 357 356 355 354 353 352 352 351 350 350 350 352 352 353 353 338 329 333 314 312 311 314 320 327 343 350 350 351 351 351 352 348 330 321 316 315 317 318 317 328 320 318 321 324 329 342
312 313 317 317 317 318 317 317 318 319 319 319 320 319 320 319 321 322 323 323 324 325 326 326 328 329 331 332 334 337 339 343 347 354 357 358 358 358 356 357 356 355 354 353 353 352 351 351 350 350 351 352 353 353 353 338 326 320 314 312 312 315 319 323 344 350 351 352 339 330 327 322 321 317 316 317 318 317 315 318 317 319 331 339 342
311 313 315 316 317 318 317 317 318 319 318 319 320 320 318 320 321 322 322 323 324 325 325 327 328 329 331 332 332 334 337 341 346 352 356 358 358 358 356 356 356 355 354 353 352 352 351 351 351 351 351 352 353 353 353 352 335 328 320 314 313 314 317 320 330 345 335 333 329 325 323 323 323 325 332 336 339 339 321 318 321 325 335 340 343
309 311 314 315 316 316 317 318 318 318 318 318 319 320 320 321 322 322 322 322 321 323 326 326 327 328 330 332 332 334 337 343 349 354 357 358 359 359 358 356 355 354 354 353 353 352 351 351 350 351 352 352 352 352 352 353 351 344 339 330 320 321 317 318 327 338 336 341 339 337 338 330 332 330 332 334 335 338 336 331 331 335 339 341 344
310 311 314 314 315 315 316 318 318 318 318 318 319 319 321 321 320 321 321 321 321 322 323 325 326 328 330 331 333 337 339 342 348 353 354 356 358 359 357 356 355 355 354 353 353 352 351 351 351 351 352 351 351 352 352 352 352 349 345 341 332 329 328 327 329 334 341 346 349 339 337 345 344 344 342 344 345 347 345 341 338 337 338 341 344
309 310 314 313 314 317 317 318 318 319 318 318 319 320 320 320 319 320 320 319 320 321 322 324 327 330 329 332 334 336 339 342 345 346 348 351 354 357 357 358 359 359 358 356 354 354 354 354 354 353 351 351 351 351 352 336 351 333 343 346 339 335 335 334 328 324 340 343 346 349 348 347 347 345 345 346 346 345 345 346 345 342 341 341 343
309 311 312 312 316 318 317 318 318 319 318 319 320 320 319 319 319 319 319 318 319 319 320 322 326 326 327 327 329 332 335 338 340 342 344 348 345 330 341 358 358 342 335 331 331 353 357 357 355 356 356 353 352 354 333 322 319 318 317 322 324 321 321 330 325 317 331 342 343 344 346 346 346 347 347 347 347 346 346 346 346 337 343 343 342
309 309 310 312 313 317 318 318 319 319 319 320 320 319 317 318 319 318 318 318 318 319 320 320 322 323 324 325 327 329 333 338 340 343 344 345 347 349 319 317 328 338 329 319 315 320 323 330 350 356 351 332 330 329 326 316 314 313 313 313 313 313 312 314 314 326 335 340 342 341 342 345 346 347 347 348 348 348 347 347 347 346 345 343 341
Wind_Speed
11 13 13 14 14 12 11 11 11 11 10 11 11 11 10 11 10 10 9 8 7 7 6 6 6 5 3 5 5 4 4 3 3 3 3 3 4 4 4 5 5 6 6 5 5 5 4 4 4 4 5 4 4 5 3 3 2 3 2 2 2 2 1 0 2 1 3 4 2 3 2 1 3 3 4 4 5 4 3 4 3 4 4 4 4
10 11 12 13 12 13 11 10 10 12 9 10 12 12 11 10 11 10 8 9 9 9 7 6 5 5 5 5 4 3 4 4 4 4 4 3 4 4 4 4 5 6 6 5 5 5 4 4 5 4 5 5 4 3 3 3 3 3 2 2 1 1 1 1 2 2 3 1 2 4 4 4 1 2 3 4 5 4 4 4 4 5 5 4 3
12 14 14 13 15 14 12 11 11 14 13 13 12 12 11 11 10 9 9 10 9 9 7 7 5 5 6 4 5 3 2 3 2 1 2 3 3 4 4 4 6 5 5 6 5 5 5 4 4 4 4 4 4 4 4 3 4 4 4 3 2 0 2 2 3 3 2 0 1 1 3 5 4 3 2 3 4 4 4 5 5 5 7 4 3
13 14 15 14 14 14 13 12 12 12 11 11 12 13 11 10 10 10 9 9 9 9 8 6 5 4 4 4 5 4 4 3 3 3 3 3 4 4 3 4 6 5 6 5 5 5 5 5 3 4 4 5 4 4 4 4 4 3 3 3 2 1 1 1 2 3 3 3 2 1 2 1 4 3 4 4 1 4 4 5 4 5 5 4 3
12 13 13 14 14 14 14 13 12 12 12 12 12 12 10 12 11 11 10 10 9 9 9 6 6 4 4 4 3 3 4 4 3 2 4 3 2 4 5 5 6 5 6 6 5 5 5 5 5 5 5 5 4 4 4 5 6 5 5 4 4 2 1 2 1 2 3 1 5 1 2 2 2 3 3 3 1 2 3 5 4 5 5 3 4
14 14 13 13 13 13 13 14 14 13 13 13 13 13 12 11 11 10 9 8 9 9 9 8 7 7 7 7 6 5 5 5 6 7 5 5 6 4 4 4 5 5 5 6 5 5 6 6 5 5 5 5 5 4 4 3 4 5 5 4 3 3 1 1 2 1 2 2 2 2 2 1 2 2 1 2 5 1 2 2 4 5 4 4 4
12 12 12 13 14 14 14 14 15 14 13 12 11 12 13 12 12 12 10 9 8 9 10 9 8 7 9 9 8 9 8 7 5 5 6 5 4 4 4 4 5 5 5 5 5 6 5 5 6 5 5 5 5 4 4 4 4 4 3 3 4 3 3 2 3 1 2 1 2 2 1 2 2 2 2 1 4 4 2 2 2 2 4 4 5
13 14 14 15 14 15 16 15 14 15 13 11 12 11 13 13 12 12 10 10 9 9 10 10 10 9 8 7 7 8 8 7 5 5 4 4 5 5 4 4 5 5 4 4 5 6 5 5 6 5 5 5 5 5 4 3 3 2 3 3 1 3 5 4 3 2 3 2 1 1 1 2 3 3 2 1 1 2 6 4 2 3 2 4 5
15 14 15 16 16 15 15 15 14 13 12 13 12 12 12 12 12 11 11 10 9 11 11 10 10 10 9 7 7 6 6 5 5 4 5 4 6 4 5 4 5 5 4 4 4 4 5 6 6 6 6 6 4 3 3 3 5 4 4 3 3 3 4 3 3 4 3 3 3 0 0 3 3 3 1 2 1 1 3 2 5 4 2 3 3
15 16 16 16 16 15 14 14 13 13 12 12 13 12 11 11 11 12 12 10 10 12 12 12 11 9 9 8 9 6 5 4 5 6 6 5 6 6 6 5 5 5 6 6 5 5 5 6 5 5 5 5 4 4 4 4 4 4 4 5 4 4 3 4 5 4 4 3 3 4 2 2 3 1 2 2 2 2 1 4 3 4 6 5 3
14 15 15 16 15 14 12 14 15 13 11 12 12 11 11 11 12 13 13 10 10 12 12 13 11 10 10 9 9 8 7 6 6 6 6 6 6 7 6 6 5 6 6 6 7 7 7 7 6 5 4 4 3 4 4 4 3 4 4 4 4 5 3 4 3 3 3 3 3 3 4 4 4 2 3 1 1 1 2 2 3 2 3 6 5
14 14 14 14 13 13 13 14 14 14 12 12 12 12 12 12 12 14 12 12 11 11 12 12 11 11 10 10 10 9 8 7 9 9 8 8 8 7 6 5 6 6 6 6 7 7 6 7 7 5 4 4 4 4 3 3 3 3 3 4 4 3 2 3 4 4 4 3 2 2 2 2 2 1 1 2 1 1 1 3 3 4 2 3 5
13 14 13 13 14 15 15 14 13 13 13 14 14 13 12 12 14 14 14 13 12 12 13 13 12 11 11 11 10 8 9 9 8 8 8 8 7 7 6 6 5 6 7 8 7 8 7 6 7 6 5 4 4 4 3 3 3 3 4 4 4 5 5 4 4 5 4 5 4 1 2 2 2 2 3 2 1 2 1 2 1 1 2 4 3
13 12 13 13 14 14 15 14 14 13 15 15 14 13 12 12 13 14 15 14 12 12 13 12 13 12 11 10 10 9 9 9 8 8 7 7 7 7 7 7 7 7 7 7 6 6 5 5 4 5 5 4 5 5 4 4 4 4 4 4 5 4 3 5 4 3 3 3 2 3 3 3 2 2 2 2 2 1 1 2 3 1 1 3 3
12 13 14 15 15 16 15 15 14 14 15 15 14 13 13 13 13 15 14 13 13 13 12 13 12 12 11 10 10 8 9 8 8 7 7 7 7 7 7 6 6 6 6 6 6 6 6 5 5 5 5 5 4 4 3 4 4 3 3 4 3 3 4 3 3 3 3 4 3 3 3 2 3 3 2 3 2 3 3 3 2 4 4 2 3
13 14 15 16 14 14 14 13 14 14 15 14 15 13 14 14 14 15 16 15 14 13 13 13 12 11 11 11 11 10 8 7 6 6 6 7 8 7 7 7 6 5 5 5 6 6 6 6 5 6 5 5 5 5 5 4 4 4 3 3 4 2 4 4 4 3 3 4 4 3 3 3 2 2 3 3 3 2 3 2 2 3 1 5 4
13 14 15 15 13 14 14 14 14 14 14 15 15 15 15 14 14 14 14 13 14 15 14 13 12 11 12 12 11 10 10 10 9 9 9 7 6 7 7 6 6 6 6 5 6 6 6 6 6 6 6 6 5 5 5 5 4 4 4 4 5 3 4 5 3 4 3 3 3 4 3 3 2 2 2 2 1 1 2 3 3 3 4 1 3
16 16 14 15 16 17 16 15 16 16 17 16 16 15 14 15 15 16 14 15 14 14 13 12 13 12 12 12 11 12 12 11 10 9 8 7 6 6 5 6 8 6 6 5 6 6 6 7 6 6 6 6 6 5 6 6 5 4 5 5 4 4 4 3 3 4 3 3 3 2 2 2 1 2 1 1 1 1 2 3 3 2 3 1 2
12 12 12 13 15 16 16 16 17 17 17 16 16 15 13 13 14 16 17 17 17 14 13 11 12 11 10 12 13 11 10 10 9 8 8 8 9 8 8 8 6 6 6 6 6 6 6 6 6 6 6 6 6 6 6 5 6 5 4 4 4 4 4 5 4 3 3 3 3 3 2 2 2 1 0 1 1 2 2 1 2 2 2 3 4
12 13 13 14 16 17 18 17 17 17 16 15 16 14 16 15 15 14 14 13 13 14 14 13 13 11 11 10 11 11 11 11 10 9 9 10 9 9 8 8 8 7 7 7 7 7 7 7 6 6 6 6 6 5 5 5 5 5 4 4 4 5 4 5 4 3 2 3 3 4 3 3 2 1 1 1 1 2 3 2 1 2 2 2 3
10 13 13 13 13 14 15 16 15 14 13 14 15 17 16 14 15 15 15 15 14 14 13 13 12 12 12 13 12 11 11 10 10 10 10 10 8 8 8 8 5 7 7 8 8 8 8 7 7 6 7 6 6 6 5 5 6 6 5 5 4 5 5 4 4 4 2 3 3 4 4 3 2 2 2 1 1 1 2 1 2 2 2 2 3
17 12 12 10 11 11 11 10 10 11 13 15 15 14 15 16 15 15 14 14 15 14 13 12 11 11 13 13 12 11 11 10 11 11 11 10 9 9 8 6 8 8 7 8 9 7 7 8 7 7 7 7 7 6 6 5 6 6 6 4 4 5 5 5 4 4 4 3 3 4 4 3 3 3 2 2 2 1 2 2 3 3 3 3 3
17 18 12 9 7 8 10 11 11 13 13 15 14 15 16 17 16 14 15 15 15 15 14 12 12 12 13 12 11 11 11 12 12 11 11 11 9 9 8 9 9 7 7 8 8 7 8 8 8 8 8 7 7 7 6 6 6 7 6 6 5 6 6 5 5 5 5 4 3 4 5 3 2 3 3 3 2 3 2 3 4 3 4 3 3
19 18 16 16 6 3 8 9 9 11 11 14 14 14 14 15 15 15 16 16 15 13 13 12 12 12 12 12 12 11 12 11 11 11 13 12 10 9 9 10 10 7 8 7 7 8 7 8 9 8 8 8 8 7 7 6 7 7 6 7 6 6 6 6 6 5 5 5 5 5 5 4 3 3 3 3 2 2 3 3 3 3 3 4 3
21 19 19 17 17 16 11 5 6 9 8 10 11 13 14 14 14 15 15 15 14 12 12 13 13 13 12 12 12 12 12 13 12 9 11 10 10 9 8 10 9 9 9 8 7 7 8 8 7 9 9 9 8 8 8 7 6 6 7 6 7 6 6 7 6 6 6 6 6 6 5 4 4 4 4 3 3 4 3 3 3 2 3 2 2
15 19 21 18 14 15 15 13 12 7 5 7 9 11 11 12 13 14 14 13 13 12 13 12 12 12 12 13 12 12 13 13 13 11 12 11 10 11 10 8 9 11 9 8 9 7 8 9 9 9 9 9 8 8 8 8 7 7 7 6 6 7 7 7 6 6 6 6 6 6 6 5 5 6 6 5 4 5 4 4 4 4 3 3 3
15 14 15 18 20 19 15 16 13 11 12 4 9 11 11 11 11 12 11 12 12 12 12 13 13 13 12 13 13 13 13 12 12 13 11 11 11 10 10 10 9 10 9 8 8 9 8 9 9 8 8 9 8 8 8 8 7 6 7 7 7 7 7 6 7 7 7 7 7 6 6 6 7 7 7 6 6 5 4 5 5 5 4 4 4
15 16 18 17 17 17 18 17 16 15 12 12 11 5 9 10 12 12 12 12 11 12 12 12 12 12 12 13 13 12 12 12 12 11 11 12 11 11 11 10 9 10 9 9 9 9 8 7 8 8 9 7 8 7 8 8 7 7 7 7 7 7 7 7 7 7 7 7 7 7 7 7 8 7 7 6 6 6 5 5 5 4 4 4 4
17 16 16 16 16 15 17 16 15 16 16 15 12 12 10 5 8 10 12 14 13 13 14 14 13 13 13 12 11 11 10 11 11 10 11 11 11 11 10 10 10 10 8 9 9 9 9 9 9 9 9 8 7 9 8 8 8 8 8 8 8 8 8 7 7 7 7 7 7 7 7 8 8 9 10 9 8 7 6 6 5 5 5 5 4
16 15 14 14 14 15 14 15 16 16 17 16 14 13 11 12 7 11 12 13 12 14 14 14 14 13 12 12 11 10 10 10 11 11 11 11 10 10 10 11 11 11 10 10 9 10 10 10 10 10 9 8 9 8 10 15 13 9 8 8 7 7 8 7 7 7 7 8 8 8 8 12 12 13 12 12 12 12 11 8 7 6 6 5 5
14 15 16 13 14 13 14 16 16 17 15 13 13 11 13 11 12 7 11 11 13 13 13 14 14 13 12 12 11 11 11 11 12 11 10 10 11 10 10 10 11 10 10 10 10 11 11 10 11 10 10 9 9 9 15 15 16 16 10 9 9 8 8 8 8 8 8 8 7 8 7 10 11 11 12 14 13 13 13 13 13 11 8 7 6
12 14 13 15 16 15 16 15 15 15 14 15 14 14 12 13 11 11 10 9 12 13 14 14 13 13 13 13 12 12 12 12 11 12 12 11 11 11 11 11 10 11 10 9 11 12 11 10 9 10 10 11 10 12 16 16 17 17 15 11 8 7 7 8 8 8 8 7 8 7 7 6 7 9 8 8 11 13 14 14 14 13 12 12 11
11 10 12 13 13 14 14 13 13 13 14 14 14 13 14 13 11 13 9 9 12 14 13 13 13 13 13 12 12 12 13 12 12 12 12 11 11 11 12 11 12 11 10 10 12 12 12 11 11 12 12 11 11 13 16 17 17 18 18 15 8 8 8 8 8 9 9 8 7 6 6 6 7 13 11 8 7 8 11 15 14 14 13 14 14
9 10 11 12 12 12 11 11 11 13 13 13 12 12 12 11 11 10 11 9 8 11 12 13 13 14 13 13 13 13 13 14 13 12 11 11 12 12 12 11 11 10 11 12 12 12 12 11 12 12 12 11 12 13 17 18 18 19 18 15 10 9 9 9 10 9 8 8 8 7 7 7 7 8 8 8 8 8 7 6 7 7 7 11 14
9 11 12 12 12 11 13 14 13 14 13 14 13 13 13 13 12 12 11 11 8 7 10 12 13 14 13 13 13 13 14 13 13 13 12 12 13 12 12 11 10 11 12 12 13 12 13 12 13 12 11 12 12 16 17 19 19 19 19 15 9 9 9 9 9 9 11 9 9 8 8 8 7 7 7 9 8 8 7 6 7 7 8 7 7
9 9 10 11 11 12 12 12 13 11 13 12 13 13 13 13 12 12 11 11 10 7 3 5 10 11 12 13 13 13 13 13 12 12 12 13 13 13 13 12 11 10 10 10 10 11 12 13 13 13 12 14 12 17 17 19 20 19 19 11 11 11 10 11 11 11 10 10 9 8 8 8 9 10 12 15 13 8 7 7 8 8 7 7 7
6 6 8 7 8 10 10 10 12 12 11 12 12 13 13 11 12 12 12 11 10 9 9 8 5 5 8 9 10 11 12 12 11 12 12 13 12 12 12 10 11 11 10 10 11 11 11 12 12 13 14 14 14 15 18 20 20 21 14 9 9 10 11 12 12 11 10 8 8 9 9 8 10 10 13 15 15 12 7 8 8 8 6 6 8
6 6 5 6 8 8 9 10 12 12 12 11 11 12 13 11 10 11 13 13 11 9 9 8 7 7 6 4 8 9 10 11 10 12 12 12 11 11 11 10 11 12 12 12 11 11 11 11 13 14 14 13 13 15 19 19 20 20 17 12 10 10 11 11 11 11 9 9 11 15 13 10 10 12 14 15 15 12 8 8 8 8 7 8 9
6 6 6 8 7 9 8 9 9 11 13 13 13 12 12 11 10 11 11 12 13 12 9 8 8 7 6 5 4 7 11 11 11 11 10 12 12 12 12 10 10 10 11 10 11 10 11 11 11 13 16 16 14 14 18 19 20 20 17 11 11 9 10 11 11 11 10 9 10 11 17 16 13 15 16 14 15 13 9 9 8 7 8 9 10
6 6 6 6 6 6 8 8 9 10 10 12 12 11 12 12 11 10 9 10 13 14 13 9 7 6 4 4 4 4 5 10 12 12 12 13 12 11 11 11 10 9 11 10 11 10 12 11 11 12 12 13 15 14 14 19 19 19 21 14 10 10 10 12 11 10 9 10 10 9 12 17 18 18 18 16 15 16 11 8 7 7 8 11 8
7 7 7 5 6 6 6 6 7 8 8 8 9 10 10 10 11 10 10 10 11 13 13 11 8 7 5 4 3 4 5 6 8 10 12 12 11 12 11 11 11 10 11 11 11 11 11 12 11 12 12 13 13 14 13 17 18 19 21 18 11 12 12 11 10 10 8 9 9 9 8 13 17 19 19 18 15 17 16 10 9 9 11 14 9
7 7 7 5 6 7 8 7 6 5 7 7 7 8 8 8 9 11 12 10 11 13 12 11 10 9 6 5 5 5 5 6 7 8 10 11 11 11 11 12 11 11 12 13 12 11 11 11 11 12 12 13 14 17 13 14 18 19 20 23 14 14 14 12 11 10 9 9 10 10 10 13 17 18 19 19 17 16 18 11 12 16 17 15 12
11 9 7 6 5 6 8 8 7 6 5 6 7 8 9 9 7 8 10 12 12 12 13 12 10 9 7 7 6 7 6 5 6 8 10 12 11 11 12 11 12 12 13 13 13 12 12 12 11 11 11 11 11 11 17 13 17 21 22 22 24 17 17 14 12 12 11 12 10 11 11 15 17 18 18 19 18 18 13 13 18 17 17 17 11
9 9 9 6 5 5 7 8 7 5 5 6 6 8 9 10 11 10 9 11 12 12 12 11 10 9 9 7 8 8 8 7 8 8 8 10 11 11 11 11 11 11 11 12 11 11 12 12 11 11 10 10 9 10 12 18 16 21 21 24 25 23 19 14 13 12 11 10 11 11 11 15 17 18 19 18 18 15 13 18 18 18 17 12 5
13 11 10 8 7 7 6 8 7 5 3 4 5 7 10 11 11 11 12 14 14 13 11 10 10 9 8 7 7 8 9 9 9 8 8 8 10 11 10 11 11 11 12 12 12 11 12 12 12 12 11 9 10 10 10 14 20 20 23 24 24 24 21 20 15 12 12 11 13 16 16 16 17 17 19 17 12 13 17 16 18 18 12 4 7
12 11 10 9 7 6 7 8 8 6 4 3 4 4 8 10 10 10 10 12 14 14 10 10 9 9 9 9 10 10 10 10 11 9 9 8 8 9 10 10 10 12 12 12 12 11 12 11 11 11 10 10 10 10 11 11 13 17 17 22 23 23 24 23 22 17 18 19 17 17 18 17 15 14 10 7 8 11 15 17 14 9 6 7 7
12 13 10 8 7 7 7 7 8 7 5 4 5 4 4 6 8 9 10 12 12 11 10 9 9 9 9 7 9 8 9 10 10 9 8 7 7 8 9 10 11 12 12 12 13 11 11 11 12 10 10 9 10 11 11 10 9 8 8 11 13 15 20 20 15 12 12 12 13 11 9 10 9 12 14 13 11 8 6 5 6 8 8 7 7
11 11 11 8 7 8 8 7 7 7 6 4 4 5 4 6 7 8 9 10 11 10 10 10 10 9 8 6 8 13 13 10 10 9 8 7 7 8 10 11 12 13 13 12 12 13 14 12 12 10 10 10 12 11 11 11 9 8 9 9 10 10 9 9 10 9 8 9 7 7 7 5 5 5 6 5 6 5 6 6 6 6 7 8 9
12 11 9 10 8 8 8 7 7 6 6 6 5 4 4 5 8 8 9 9 9 11 11 11 9 8 9 8 7 8 10 11 10 10 10 9 9 9 9 11 12 11 11 12 12 12 13 12 11 10 11 11 12 12 11 11 14 16 14 9 9 10 9 9 15 16 8 7 8 6 5 6 6 8 6 6 6 6 7 7 7 7 7 7 7
11 10 11 10 9 8 8 8 7 6 5 6 6 5 4 6 8 8 9 10 11 10 10 10 9 8 8 8 8 9 9 10 11 10 10 11 13 15 13 11 11 13 17 17 14 13 13 10 11 12 12 14 13 13 13 16 17 16 17 19 18 17 17 14 14 16 12 8 8 8 8 9 8 8 9 8 7 8 8 9 9 9 8 7 8
12 11 11 11 10 8 7 7 6 4 5 6 6 5 6 6 7 8 9 9 10 9 8 8 9 9 10 10 9 9 9 9 9 9 8 9 9 11 15 20 18 15 15 19 19 21 18 14 13 11 11 17 16 10 8 15 17 18 18 19 18 17 18 17 14 11 7 9 8 9 10 9 9 9 10 10 7 8 9 8 8 8 8 9 9
Wind_Direction
186 186 185 185 186 183 182 177 179 180 177 174 174 178 181 181 176 184 178 169 168 174 178 172 175 181 186 198 208 194 187 185 191 180 185 180 167 167 166 171 162 165 172 170 175 185 174 170 167 181 188 180 196 207 196 190 193 171 180 223 210 269 308 73 219 102 41 347 337 359 322 249 244 206 218 224 233 238 236 242 245 250 242 237 239
178 187 189 185 186 185 181 180 177 176 183 177 179 181 181 182 185 184 173 175 178 181 184 178 182 184 171 186 174 160 167 179 199 200 196 178 167 168 171 167 171 172 175 176 177 184 168 174 185 183 175 196 199 195 183 186 174 156 145 188 282 204 262 202 222 139 31 100 0 330 334 326 265 223 226 231 229 229 227 232 234 246 250 244 238
183 190 187 187 186 184 183 183 182 184 180 180 184 179 180 183 188 182 183 179 181 180 178 185 182 183 177 163 172 147 201 207 213 185 168 169 166 169 170 167 175 176 178 181 182 188 186 183 194 187 191 190 183 191 189 186 179 183 182 182 179 322 266 250 212 209 131 145 118 353 351 358 327 345 296 257 236 231 223 232 232 239 248 247 238
189 187 189 188 186 185 185 184 185 184 181 183 181 181 181 186 184 183 187 185 179 181 183 180 166 167 172 154 162 156 180 167 138 117 152 159 177 169 177 174 183 182 180 184 191 188 189 194 187 193 198 197 189 191 201 200 183 180 197 198 130 204 325 277 200 191 140 138 340 42 285 60 340 327 325 297 280 244 226 235 231 244 250 252 234
193 190 189 187 187 188 187 187 183 185 185 185 183 183 183 185 185 184 184 188 184 179 176 159 139 127 129 91 114 106 63 112 128 151 177 188 169 182 193 176 188 187 186 190 193 188 189 195 190 195 196 197 195 200 200 202 195 189 189 175 176 170 267 302 327 174 196 174 137 82 352 10 249 267 341 293 349 223 229 239 238 247 250 238 237
195 196 191 187 187 189 191 187 186 189 188 187 184 183 181 183 182 182 182 187 186 178 168 159 163 158 151 153 166 184 176 164 189 192 179 189 208 187 173 177 181 195 195 191 194 188 195 198 196 190 196 193 198 202 203 173 178 187 192 181 190 197 185 117 321 96 212 221 158 150 164 162 262 281 18 317 317 267 317 261 238 240 237 238 233
201 199 193 191 189 190 192 190 191 191 192 184 182 183 183 180 181 180 181 186 184 177 169 166 159 168 177 183 183 187 190 208 197 187 183 195 172 170 182 172 181 191 195 192 194 199 194 199 204 206 203 196 197 192 195 191 185 194 164 179 207 140 140 203 215 251 34 262 212 241 249 294 132 105 296 130 344 320 342 336 291 265 248 244 245
196 200 200 198 193 191 192 193 193 195 188 181 183 182 183 182 180 181 181 181 182 176 175 173 170 176 183 186 184 189 196 201 186 184 181 171 178 192 176 186 192 198 200 192 197 202 201 205 208 209 211 202 197 198 202 191 176 201 184 190 133 172 176 196 211 188 170 214 133 157 116 111 79 64 124 217 179 301 317 319 253 282 282 249 253
197 198 201 201 200 195 191 193 196 192 186 185 184 184 184 182 179 178 181 180 180 177 177 180 177 176 181 183 191 199 192 182 165 167 174 172 185 182 190 188 194 204 205 199 198 199 206 210 204 209 212 211 201 196 196 179 185 173 169 154 190 204 197 189 141 195 190 189 135 10 318 45 49 59 95 86 114 103 288 303 311 322 315 278 269
202 202 202 203 203 201 193 190 190 193 191 187 186 183 181 177 178 179 185 185 180 180 179 182 180 174 178 186 190 188 182 162 163 174 178 177 186 192 194 187 194 196 206 209 211 212 213 214 204 204 209 204 205 192 182 186 182 185 182 186 182 198 207 181 198 198 187 212 205 165 125 57 18 4 21 52 63 70 251 310 319 333 338 311 324
202 203 204 205 203 200 190 190 194 191 189 185 186 184 179 178 180 183 187 184 183 182 181 184 183 179 183 183 188 184 178 167 169 187 177 177 189 193 189 194 187 199 199 208 211 213 215 216 214 211 211 213 212 188 190 192 190 185 183 189 188 188 181 182 207 173 167 174 187 180 176 172 177 196 241 248 74 269 353 317 313 247 268 317 299
199 199 204 203 201 202 195 196 193 191 185 187 187 183 181 183 182 185 185 185 185 186 184 186 186 186 186 182 186 186 175 177 186 188 187 188 191 190 191 182 196 198 200 205 211 210 211 214 215 208 205 204 215 209 193 193 185 169 175 182 200 202 156 158 176 164 178 167 194 189 180 153 120 135 175 156 125 253 149 286 288 313 310 225 285
197 199 199 198 200 199 199 199 192 189 189 187 187 184 184 184 185 184 188 186 185 186 189 189 187 188 188 187 188 181 182 183 188 190 186 191 192 191 178 191 184 195 204 208 211 208 208 212 212 211 205 200 204 197 200 180 175 174 184 189 191 194 186 168 169 195 175 186 209 153 172 190 166 160 144 151 95 121 142 334 264 176 273 308 308
197 195 199 200 199 199 200 196 192 191 192 189 187 185 185 186 186 187 191 186 184 186 190 192 193 191 189 188 187 180 185 186 189 188 190 192 188 195 193 191 190 196 190 203 191 191 196 204 205 206 205 197 193 192 188 183 182 189 183 188 201 208 174 179 189 178 171 176 136 161 182 174 185 180 171 152 172 171 289 236 280 300 206 293 299
194 195 199 199 198 196 197 196 193 192 192 190 188 188 184 187 185 190 190 189 186 187 188 193 195 193 190 190 185 185 185 187 191 189 183 189 196 196 200 197 195 198 194 202 186 186 190 188 197 205 202 196 188 185 186 182 190 194 193 204 204 187 198 178 177 170 180 171 183 179 171 179 198 184 174 212 193 218 198 189 155 333 339 359 335
199 199 202 201 195 194 197 196 193 192 192 191 189 187 187 189 186 190 190 186 188 188 191 192 194 193 190 189 189 187 187 183 183 189 192 192 191 196 201 201 202 193 199 190 192 189 187 187 192 205 199 196 187 183 177 178 178 184 205 192 214 180 195 202 198 184 196 187 184 186 168 199 178 173 202 214 212 216 210 165 142 118 75 330 328
204 205 203 199 192 194 196 195 193 192 191 192 191 188 188 186 187 191 192 189 190 190 191 192 192 190 193 192 188 186 187 187 191 192 191 192 194 199 200 200 196 198 197 187 188 193 192 187 192 201 199 196 189 183 175 174 174 189 200 196 212 198 192 213 194 196 202 173 167 184 196 202 172 181 213 218 196 184 188 189 175 161 153 64 319
211 209 204 197 196 194 194 195 194 192 191 192 191 189 188 188 187 188 189 190 194 193 194 192 190 192 192 192 191 190 191 194 191 188 183 183 199 201 196 194 205 197 188 187 186 190 198 195 193 200 201 193 196 183 174 173 168 187 197 206 212 185 198 199 204 199 201 178 166 166 186 216 187 198 221 119 151 162 169 195 187 167 148 179 180
220 215 207 202 201 198 196 196 195 192 190 190 188 185 187 190 192 191 190 191 189 191 194 194 193 194 193 192 191 192 194 193 189 180 173 187 196 198 201 207 193 189 188 188 184 188 190 197 193 196 193 201 193 185 171 172 173 179 189 207 199 188 198 209 204 197 203 178 187 195 193 224 219 249 195 153 127 140 144 190 166 136 168 135 149
227 219 211 209 207 201 196 196 193 191 188 188 186 186 190 190 190 193 195 192 189 191 190 192 193 194 196 194 196 194 192 190 187 178 182 191 196 195 203 203 204 187 191 185 187 187 187 191 193 192 197 200 194 188 175 168 173 187 184 199 196 185 200 210 214 201 211 196 204 221 213 225 218 196 263 236 179 154 150 175 163 154 138 142 133
274 225 221 215 211 206 204 199 195 189 187 184 185 189 191 189 193 192 190 189 191 195 193 197 191 196 192 193 194 194 195 193 190 189 189 193 189 192 199 207 188 202 188 187 190 191 189 193 190 193 196 199 202 191 178 170 175 184 187 193 186 187 201 215 204 212 213 203 209 225 229 224 172 207 244 262 241 186 167 173 149 155 161 158 157
347 301 228 218 209 210 211 203 188 190 187 188 189 188 189 191 193 192 192 193 192 192 195 195 194 195 196 195 196 195 194 191 192 192 197 192 190 193 194 185 201 209 193 196 196 187 189 188 192 195 197 196 200 200 181 175 178 180 188 185 189 188 203 210 191 216 203 206 204 221 242 230 185 204 206 227 237 218 200 205 199 183 191 187 193
352 352 325 226 201 203 197 195 191 195 195 189 187 189 192 192 192 192 191 196 194 195 193 191 192 193 198 197 194 194 192 194 195 196 200 196 193 193 181 190 202 202 198 204 199 190 188 188 196 200 198 197 201 199 188 183 186 185 183 190 189 190 200 203 201 211 210 195 206 219 239 228 190 206 203 225 204 222 200 213 220 190 199 200 184
4 4 7 357 353 165 169 189 197 195 192 193 192 193 192 192 193 191 194 195 195 195 191 191 193 197 196 193 194 194 191 194 198 201 202 201 195 190 183 192 198 194 196 206 201 196 186 188 194 197 198 200 196 199 193 194 194 186 187 189 189 193 199 204 205 205 207 198 205 212 231 223 208 216 230 219 213 207 203 213 225 211 204 207 190
13 11 9 10 14 8 1 337 212 195 195 194 194 196 193 195 192 194 197 194 194 192 191 192 194 195 194 195 197 194 195 196 199 198 203 200 198 190 188 193 189 193 199 194 203 191 191 191 194 195 199 199 202 195 197 198 197 191 189 187 191 194 200 202 201 199 204 200 207 214 219 208 199 219 233 232 214 211 207 204 220 211 211 216 191
12 14 14 14 9 10 11 11 6 334 214 184 197 197 199 198 197 196 194 192 193 191 193 193 193 195 197 197 198 197 199 199 199 199 201 201 199 198 193 194 190 196 195 193 197 192 196 200 202 202 201 207 202 199 204 206 198 192 190 191 191 196 202 201 203 201 201 198 208 209 214 203 203 204 221 218 211 216 204 209 216 217 212 203 213
17 17 15 16 15 10 7 11 4 11 359 298 202 193 197 193 196 196 196 192 192 190 192 194 195 199 199 200 198 201 200 199 200 202 201 200 202 200 197 196 192 198 194 191 194 199 205 203 206 199 203 203 201 200 207 207 204 198 197 196 195 199 200 202 207 207 206 206 206 208 208 209 214 213 215 213 204 206 209 219 212 214 201 202 220
10 14 15 13 11 9 9 4 7 7 3 11 351 273 204 193 193 189 189 190 191 190 193 196 197 200 202 203 203 201 201 202 201 199 200 202 202 203 204 202 194 198 200 199 195 199 204 202 204 205 209 202 199 201 203 207 204 201 198 202 202 202 204 207 210 210 210 211 207 207 211 212 216 218 217 214 197 209 195 223 211 200 196 203 223
9 9 10 8 5 7 5 4 4 5 11 6 2 360 340 239 193 191 187 194 188 190 193 196 197 200 203 204 202 202 203 202 202 200 203 203 203 204 202 202 204 205 202 204 204 202 204 208 211 209 208 203 202 208 205 203 202 203 204 207 206 206 206 209 213 214 212 215 214 211 211 214 215 222 218 223 218 208 202 223 218 180 196 204 216
5 1 4 3 3 2 358 3 5 7 7 5 3 357 351 337 251 194 196 191 186 193 193 196 199 201 202 201 201 200 200 200 201 203 204 203 203 202 202 205 208 208 208 205 205 206 206 209 211 212 208 206 211 212 212 205 202 204 201 209 208 210 210 210 212 212 215 215 218 218 219 216 217 223 224 224 225 224 222 224 232 178 194 195 209
359 1 360 357 360 356 357 0 2 5 1 2 358 352 349 345 342 284 207 195 191 192 194 195 199 199 199 199 197 201 198 200 202 204 203 203 205 204 205 207 208 207 208 208 205 209 210 210 211 211 211 212 215 216 211 205 206 206 204 208 210 213 209 208 211 210 215 212 217 219 224 228 224 222 226 227 226 225 226 229 235 226 203 192 203
5 359 353 1 357 358 359 353 350 354 358 1 354 352 350 349 335 333 306 221 196 194 194 196 198 197 198 197 198 198 200 203 200 204 203 203 203 204 207 208 208 208 209 207 211 213 212 210 211 212 215 217 219 216 207 206 206 207 206 209 206 211 207 209 209 212 216 213 214 214 217 216 220 225 222 222 226 227 224 226 229 230 225 219 213
358 353 358 356 353 353 350 347 348 350 354 352 352 348 350 340 334 326 311 281 212 196 194 196 197 199 200 198 197 198 201 203 203 204 204 202 203 205 207 208 209 210 205 208 214 213 213 212 212 214 219 219 224 212 206 206 206 206 207 209 215 212 210 212 210 212 215 216 212 211 215 211 219 221 224 223 217 224 223 225 226 229 229 225 228
356 358 359 353 355 346 341 348 342 347 347 348 347 348 337 332 331 329 332 319 256 209 196 196 196 200 200 198 198 199 201 204 203 203 203 204 205 208 209 207 210 206 208 212 213 215 216 213 213 215 220 223 224 215 202 204 206 206 206 204 219 212 214 217 217 213 215 215 213 208 210 218 214 217 218 217 215 220 217 206 212 215 221 228 227
354 352 350 355 353 344 345 342 350 346 347 348 349 345 342 337 343 344 343 336 326 247 208 198 200 203 200 199 199 200 204 205 204 202 202 205 206 210 210 210 206 206 208 210 211 213 215 215 216 215 218 223 227 215 201 202 205 205 206 201 214 216 217 222 220 218 221 218 216 210 214 219 218 214 214 212 215 218 213 213 216 218 218 221 215
356 343 337 348 347 348 341 334 337 345 350 352 344 339 340 340 338 349 343 346 343 355 329 244 218 208 205 203 200 202 204 206 205 202 204 207 208 209 210 209 210 212 213 212 214 216 217 217 217 216 217 225 226 213 203 202 203 204 200 194 210 217 221 224 225 224 220 221 219 214 215 220 227 225 222 214 216 214 209 219 223 229 230 226 227
333 337 333 328 342 337 335 336 338 343 350 349 338 337 337 340 351 350 349 346 353 1 3 360 334 249 221 211 207 205 207 208 205 205 208 210 210 211 215 209 213 215 212 210 214 211 215 214 214 215 218 224 229 215 204 203 202 200 188 195 206 214 222 225 229 225 222 216 212 214 216 221 226 230 225 210 214 209 215 218 227 234 233 236 244
316 329 314 329 333 330 334 342 342 337 345 347 343 338 335 341 351 354 349 345 343 348 352 352 349 351 340 240 207 206 210 209 206 209 210 214 214 216 216 207 211 213 214 213 211 216 215 215 215 218 216 221 228 219 205 205 201 193 187 196 203 208 219 224 231 228 224 222 221 216 212 218 224 232 227 210 207 198 215 220 224 232 239 243 250
328 325 329 336 322 327 328 336 337 340 342 346 341 337 339 342 346 352 352 343 334 329 336 337 335 328 321 334 302 216 205 208 211 211 211 215 216 216 217 210 212 216 220 219 217 218 218 217 214 217 217 219 227 224 207 206 202 191 189 201 198 203 214 223 223 229 226 226 226 222 219 220 223 231 229 215 201 192 211 215 218 223 233 241 243
322 330 333 315 317 314 332 335 342 338 337 344 336 335 339 341 341 344 354 343 329 319 310 307 310 299 302 306 299 299 239 216 210 211 211 213 214 214 214 208 212 212 219 218 219 218 220 219 215 216 216 217 225 228 212 206 201 193 190 195 198 200 215 219 219 218 224 227 227 230 223 221 223 228 230 221 199 194 205 211 207 217 227 242 236
311 319 323 314 312 315 305 315 324 331 338 338 336 331 333 337 335 338 349 336 319 308 306 309 300 294 299 285 274 261 259 251 235 224 219 219 216 217 215 213 212 213 218 222 220 220 220 224 219 218 219 219 221 224 220 200 201 193 193 193 200 207 212 214 215 216 216 221 224 225 228 217 217 225 230 229 201 198 205 208 208 218 223 236 241
299 303 309 304 308 309 313 313 314 333 334 334 333 328 321 334 332 335 331 319 314 309 305 302 301 299 311 317 308 281 249 245 244 236 230 226 222 218 216 213 213 213 216 220 220 221 224 225 225 221 220 223 220 218 222 201 197 195 193 196 203 210 207 209 214 220 218 223 225 224 226 220 213 219 225 228 212 201 206 209 221 222 230 232 237
305 305 297 303 300 305 311 314 317 334 336 331 328 330 332 329 329 333 326 322 314 302 302 303 303 308 320 320 312 305 293 274 251 239 231 228 221 218 217 214 212 214 216 219 220 220 222 226 228 225 224 222 220 218 213 209 195 195 195 198 206 209 202 205 212 218 217 223 222 224 226 220 214 217 222 225 220 207 199 215 224 227 228 230 231
290 285 293 292 285 289 303 310 317 325 330 329 337 331 329 332 328 331 329 322 309 300 296 303 308 312 316 314 312 305 291 281 271 257 241 229 219 215 215 213 213 214 217 220 222 221 223 226 226 227 224 221 215 220 206 208 200 195 197 199 206 212 199 206 210 221 219 217 221 221 222 217 213 216 220 224 223 201 207 215 222 229 231 229 220
293 288 287 289 281 289 293 302 311 323 327 329 327 329 328 330 330 334 333 322 311 305 311 316 314 309 309 311 310 302 295 288 279 269 254 233 223 213 213 214 211 215 217 220 221 216 221 225 227 227 224 218 215 212 216 204 204 196 199 201 204 207 212 206 211 222 221 220 220 218 218 214 214 216 219 223 224 213 215 219 220 226 226 199 212
288 285 277 275 280 279 288 295 307 318 327 322 325 329 328 324 332 332 320 309 305 308 318 316 311 309 313 319 320 310 296 286 279 267 259 247 235 216 214 212 210 216 217 221 222 218 221 222 228 229 225 222 214 216 217 208 201 203 203 204 202 205 211 212 214 218 216 219 217 215 215 217 217 218 215 199 208 214 213 217 224 216 206 212 203
286 283 280 278 279 285 283 289 295 309 320 319 323 317 316 323 323 317 308 306 304 304 303 308 310 306 309 315 319 309 305 294 281 278 265 255 240 227 219 216 213 216 218 220 222 220 223 223 226 224 225 222 221 221 218 214 195 192 191 195 204 212 215 216 220 230 227 224 226 223 220 215 216 209 211 215 215 214 187 192 201 203 211 205 204
275 276 277 272 265 267 273 279 286 295 305 310 313 312 320 317 306 305 305 303 306 313 314 311 310 309 302 315 316 307 300 286 281 280 281 276 250 232 229 221 214 215 214 217 216 217 221 220 222 218 218 218 224 223 218 211 200 180 194 188 193 193 186 186 207 216 216 226 223 216 212 199 192 199 214 212 206 191 192 184 196 196 208 211 215
280 280 270 262 253 258 262 271 276 286 296 304 304 308 316 308 308 310 310 312 313 321 321 313 314 320 325 326 305 297 295 296 298 299 290 279 273 258 241 235 231 223 218 217 213 219 220 220 218 218 215 223 226 226 222 204 205 199 191 189 180 196 192 198 212 206 192 218 226 214 200 203 200 210 210 211 205 198 206 205 199 200 208 209 205
272 271 270 267 255 247 256 263 271 280 285 294 304 314 310 307 311 316 321 319 323 323 324 324 327 328 324 320 316 304 295 289 290 289 289 288 277 263 249 240 240 226 222 222 215 221 220 216 222 223 215 219 223 223 212 195 205 205 199 194 198 194 195 199 199 187 193 200 201 208 206 207 206 209 218 215 198 202 208 214 217 209 205 205 203
274 276 270 258 251 245 245 254 262 275 279 290 300 308 314 311 315 320 321 320 325 324 325 325 322 322 318 318 311 296 289 284 278 276 277 277 286 289 266 252 246 238 219 219 222 229 233 226 218 232 228 231 240 241 193 189 201 205 203 205 201 192 189 194 157 138 183 204 200 200 207 210 214 217 224 226 205 198 210 212 209 203 211 210 210